Lawrence, MA

4:45 AM EST on February 13, 2016 (GMT -0500)
Lawrence Municipal

Weather History for KLWM - December, 2011

Change the Weather History Date:

Thursday, December 29, 2011

  Actual Average (KMHT) Record (KMHT)
Temperature  
Mean Temperature 28 °F 26 °F  
Max Temperature 34 °F 35 °F - ()
Min Temperature 23 °F 18 °F - ()
Degree Days  
Heating Degree Days 36    
Cooling Degree Days 0    
Moisture  
Dew Point 1 °F    
Average Humidity 34    
Maximum Humidity 53    
Minimum Humidity 19    
Precipitation  
Precipitation 0.00 in 0.09 in - ()
Month to date precipitation 3.10  
Year to date precipitation 44.40  
Snow  
Snow 0.00 in - - ()
Month to date snowfall  
Since 1 July snowfall  
Snow Depth -    
Sea Level Pressure  
Sea Level Pressure 29.88 in    
Wind  
Wind Speed 13 mph (West)    
Max Wind Speed 18 mph    
Max Gust Speed 31 mph    
Visibility 10 miles    
Events      
T = Trace of Precipitation, MM = Missing Value Source: NWS Daily Summary

Daily Weather History Graph

Daily Weather History Graph

Search for Another Location

Airport or City:

Trip Planner

Search our weather history database for the weather conditions in past years. The results will help you decide how hot, cold, wet, or windy it might be!

Date:

Astronomy

Dec. 29, 2011 Rise Set
Actual Time 7:14 AM EST 4:18 PM EST
Civil Twilight 6:42 AM EST 4:50 PM EST
Nautical Twilight 6:06 AM EST 5:26 PM EST
Astronomical Twilight 5:32 AM EST 6:00 PM EST
Moon 9:59 AM EST (12/29) 10:00 PM EST (12/29)
Length of Visible Light 10h 08m
Length of Day
9h 04m
Waxing Crescent, 26% of the Moon is Illuminated
Dec 29
Waxing Crescent
Jan 1
First Quarter
Jan 9
Full
Jan 16
Last Quarter
Jan 23
New

Hourly Weather History & Observations

Time (EST) Temp. Windchill Dew Point Humidity Pressure Visibility Wind Dir Wind Speed Gust Speed Precip Events Conditions
12:54 AM 26.1 °F 16.2 °F 10.9 °F 53% 29.64 in 10.0 mi West 10.4 mph - N/A   Clear
1:54 AM 27.0 °F 14.3 °F 8.1 °F 45% 29.67 in 10.0 mi West 17.3 mph 24.2 mph N/A   Clear
2:54 AM 26.1 °F 12.7 °F 5.0 °F 41% 29.69 in 10.0 mi WNW 18.4 mph 26.5 mph N/A   Clear
3:54 AM 25.0 °F 11.3 °F 1.0 °F 36% 29.72 in 10.0 mi WNW 18.4 mph 31.1 mph N/A   Clear
4:54 AM 24.1 °F 11.0 °F -0.0 °F 35% 29.76 in 10.0 mi West 16.1 mph 23.0 mph N/A   Clear
5:54 AM 24.8 °F 13.4 °F -0.4 °F 34% 29.79 in 10.0 mi West 12.7 mph 18.4 mph N/A   Clear
6:54 AM 23.0 °F 10.1 °F -0.4 °F 36% 29.81 in 10.0 mi West 15.0 mph 20.7 mph N/A   Clear
7:54 AM 23.0 °F 11.7 °F -0.9 °F 35% 29.86 in 10.0 mi West 11.5 mph 24.2 mph N/A   Clear
8:54 AM 24.1 °F 11.0 °F -2.9 °F 31% 29.89 in 10.0 mi WNW 16.1 mph 27.6 mph N/A   Clear
9:54 AM 27.0 °F 15.6 °F -4.0 °F 26% 29.92 in 10.0 mi West 13.8 mph 24.2 mph N/A   Clear
10:54 AM 28.9 °F 19.8 °F -5.1 °F 23% 29.90 in 10.0 mi WNW 10.4 mph 19.6 mph N/A   Clear
11:54 AM 30.2 °F 19.3 °F -7.6 °F 19% 29.88 in 10.0 mi West 15.0 mph 20.7 mph N/A   Clear
12:54 PM 32.0 °F 21.6 °F -6.0 °F 19% 29.88 in 10.0 mi WSW 15.0 mph 19.6 mph N/A   Clear
1:54 PM 32.0 °F 22.1 °F -5.1 °F 20% 29.88 in 10.0 mi SW 13.8 mph - N/A   Clear
2:54 PM 34.0 °F 26.6 °F -4.0 °F 20% 29.90 in 10.0 mi West 9.2 mph - N/A   Clear
3:54 PM 32.0 °F 23.6 °F -2.2 °F 23% 29.91 in 10.0 mi West 10.4 mph - N/A   Clear
4:54 PM 30.0 °F 21.7 °F -0.0 °F 28% 29.95 in 10.0 mi SW 9.2 mph - N/A   Clear
5:54 PM 30.0 °F 19.1 °F 1.9 °F 30% 29.97 in 10.0 mi WSW 15.0 mph 20.7 mph N/A   Clear
6:54 PM 28.9 °F 21.9 °F 1.9 °F 32% 29.98 in 10.0 mi West 6.9 mph - N/A   Clear
7:54 PM 26.6 °F 22.6 °F 3.2 °F 37% 29.99 in 10.0 mi SSW 3.5 mph - N/A   Clear
8:54 PM 27.0 °F 19.5 °F 5.0 °F 39% 30.01 in 10.0 mi West 6.9 mph - N/A   Clear
9:54 PM 26.1 °F 18.4 °F 7.0 °F 44% 30.04 in 10.0 mi SW 6.9 mph - N/A   Clear
10:54 PM 25.0 °F 19.3 °F 8.1 °F 49% 30.04 in 10.0 mi SW 4.6 mph - N/A   Clear
11:54 PM 25.0 °F - 10.0 °F 53% 30.05 in 10.0 mi Calm Calm - N/A   Mostly Cloudy